Volver al catálogo

STARLINK-31949

ActivoComunicacionesVLEO
NORAD 59891·PAYLOAD·🇺🇸 United States

Lanzado May 28, 2024 desde Cape Canaveral Space Force Station

Loading…

Próximos Pases (próximas 24 horas)

TLE

ActualizadoSource: CelesTrak SupGP

Época: Sep 14, 2026, 22:51 UTC

1 59891C 24100G   26257.95256944 -.00020477  00000+0 -74181-3 0  2577
2 59891  42.9990 136.4830 0001303 271.0968  57.6621 15.27582612    19

Sigue STARLINK-31949 en tiempo real con AllMySat

Download on the App Store